Race Results for
Schweitzer Mountain NCS #4
Sandpoint, ID
(Event Information)
This is a non-competitive event
Downhill on 07/26/2003

Note: Ranking points are NOT upgrade points. An explanation of ranking points can be found here.


Men - Junior - JR - 1-10

 Place NameCity, StateTime USAC #BibTeam
1THOMAS HURD   0:24:57.  1038 ROMIC RACI

Men - Junior - JR - 11-12

 Place NameCity, StateTime USAC #BibTeam
1Matthew Swanguen   San Diego, CA0:07:36. 182998  800 SPY/COLLEG
2Michael Devlin   Sammamish, WA0:14:03. 163535  482 TITUS

Men - Junior - JR - 13-14

 Place NameCity, StateTime USAC #BibTeam
1John Swanguen   San Diego0:06:13. 175203  753 SPY/COLLEG
2Tyler Ceccanti   Lake Tapps, WA0:07:14. 200920  901 SMITH
3James Shafer   Tacoma, WA0:07:17. 171944  715 JF2
4JAMES REED   0:07:41.  592 MACHINE HE
5RYAN WADE   0:07:43.  1097 MACHINE HE
6TRES WILSON   0:07:46.  920 YOUNG RIDE
7Cameron Carothers   Aptos, CA0:08:07. 194959  888 MRE RACING
8Matthew Sinclair   Boulder, CO0:09:06. 193870  634 THE FIX
9JASON COLCLOUGH   0:10:39. 200229  632 
DNFStephen Ettinger   Bozeman, MTDNF 189074  809 WENATCHEE
DNFLuciano Worl   Woodinville, WADNF 162267  600 RAD RACING
DNFJUSTIN DIVITO   DNF  817 FUN PIG

Men - Junior - JR - 15-16

 Place NameCity, StateTime USAC #BibTeam
1Travis Bond   Chattanooga, TN0:05:59. 194663  1012 TOMAC/SUCK
2Joshua Toland   Santa Cruz, CA0:06:21. 198524  407 
3JOSEPH SCAMZO   Hood River, OR0:06:34. 163167  1004 DISCOVER B
4MICHAEL SZEMBER   Yarmouth, ME0:06:43. 110378  526 MACHINE HE
5Lane Paxton   Missoula, MT0:06:45. 150826  587 BANSHEE BI
6Brian Mugnier   Phoenix, AZ0:06:49. 179147  509 NO BRAKE T
7Jack Montgomery   Kirkland, WA0:07:01. 199027  882 SPEEDMETAL
8JORDAN PORTER   0:07:05.  1071 AZONIC/MAR
9JOSHUA AUGER   0:07:28.  919 
10Steven McCullough   Kalispell, MT0:07:35. 198700  494 BMBA
11Anthony Kollmann   Kalispell, MT0:08:00. 184159  627 
12RUSTI ORDENBAUGH   0:08:06.  1059 
13William Heldfond   San Francisco, CA0:09:03. 199860  445 
14AUSTIN KOBS   0:09:14.  1111 
DNFAARON SHORT   DNF  1009 
DNFDaniel Hultgen   Santa Barbara, CADNF 184908  621 MAXXIS DRA

Men - Junior - JR - 17-18

 Place NameCity, StateTime USAC #BibTeam
1Bryan Kieffer   Puyallup, WA0:06:13. 100849  776 TEAM PSYCH
2ADAM CZAPLESKI   0:06:20.  654 AZONIC
3Gerald Ives   Grand Junction, CO0:06:25. 189544  437 GENE TAYLO
4ROWAN GRATZ-WEISER   0:06:26.  1049 ADVENTURES
6Austin Doner   Santa Barbara, CA0:06:34. 198433  1095 
7JEREMY ANDERSN   0:07:14.  534 
8TODD JONES   Maple Valley, WA0:07:25. 193417  756 
9BRAD TIBBS   0:07:40.  922 
10COREY CHRISTIANSEN   0:07:41.  839 
11JULIEN MCLAUGHLIN   0:12:51.  1138 U OF I OFF
DNFTYLER ALVARADO   DNF  527 MACHINE HE

Men - Junior - JR - JuniorX

 Place NameCity, StateTime USAC #BibTeam
1Cody Warren   Alpine, CA0:04:54. 160802  425 HARO-LEE D
2Cameron Zink   Sparks, NV0:05:05. 112265  401 OAKLEY/SUP
3Cory Gustafson   Vista, CA0:05:09. 162777  805 FOES-AZONI
4Duncan Riffle   Santa Barbara, CA0:05:10. 146687  869 CHUMBA WUM
5Daniel Umland   Bakersfield, CA0:05:10. 146235  544 ODI SOUTHR
6DAVID CAMP   W Bountiful, UT0:05:15. 186465  834 BCD
7Justin May   Issaquah, WA0:05:17. 173816  890 DOWNHILL Z
8Garrick Anderson   Poway, CA0:05:19. 182965  510 123BIKES.C
9Chris Ginzton   Salt Lake City, UT0:05:19. 179149  870 SPORTS PLU
10Peter Brennen   Berkeley, CA0:05:20. 169936  768 RPM/YETI
11Evan Turpen   Aptos, CA0:05:20. 175124  511 MR ES RACI
12Tim Kachel   Aptos, CA0:05:21. 180848  531 PLANET X
13Cole Bangert   Twin Lakes, CO0:05:24. 177344  516 COLORADO B
14Jhon Bonham   Garberville Ca0:05:26. 187203  644 AZONIC FOX
15LUKE STROBEL   Mission Viejo, CA0:05:29. 191052  854 DOWNHILL Z
16Taylor Sage   Costa Mesa, CA0:05:30. 147629  849 INSANE WAY
17AVERY BUCH   0:05:31.  875 
18James Schwanke   Bishop, CA0:05:36. 163326  777 
20Devin Anderson   Tacoma, WA0:05:37. 173744  799 RAD RACING
21Collin Carbaugh   Sumner, WA0:05:37. 173745  561 RED RACING
22Sean McClendon   Pine Valley, CA0:05:38. 159018  514 123BIKES.C
23Jeff Brines   Littleton, CO0:05:41. 186274  835 BCD
24Nick Plagman   Denver, CO0:05:44. 191126  924 RPM/YETI
25Shane May   Issaquah, WA0:05:46. 173817  698 DOWNHILL Z
26Matt Shirley   Denver, CO0:05:47. 192945  847 RPM
27Nathan Hoch   Snoqualmie, WA0:05:52. 171210  647 
28Toby Citret   Ketchum, ID0:05:55. 197845  588 
29JAKE PARTIN   0:06:07.  856 RPM/YETI
30BRIAN HERBERT   Kennebunk, ME0:06:11. 169143  503 AZONIC
31Michael Pantone   Huntsville, UT0:06:11. 160689  896 BALLISTIC
32MIKE HARDERER   Concord, CA0:06:11. 190065  904 TEAM PLANE
33BRIAN WARREN   0:06:13.  993 SINGLETRAC
34Hunter Mattocks   Bozeman, MT0:06:20. 199030  480 
35Dom DeMaio   E Brunswick, NJ0:06:21. 188663  677 OAKLEY/HCO
36Hayden Price   Sandy, UT0:06:27. 163622  889 GO RIDE SM
37COOPER QUINN   0:06:29.  742 WILSON BAC
39Hans Eldridge   Kingston, WA0:06:38. 193583  1006 TEAM ESCAP
40TYLER ACHORN   0:06:44.  842 PREMIER
42ALAN WORLEY   0:07:06.  678 
43Cris Winner   Missoula, MT0:07:09. 174246  633 SAFETY TEA
44RYDER SUTTON   0:09:39.  933 
45TYLER PARRISH   0:10:11.  1029 DIRT DART
DNFRand Shoaf   Bend, ORDNF 193872  863 COMPASS CO
DNFSeth Harney   Amarillo, TXDNF 175609  942 BCD.BCD.CO
DNFEvan Robertson   Winthrop, WADNF 147144  626 BICYCLE CE
DNFScot Purvis   Litchfield Park, AZDNF 141103  427 
DNFANDREY KOBZOR   DNF  927 

Men - SM - Senior

 Place NameCity, StateTime USAC #BibTeam
1Duncan Riffle   Santa Barbara, CA04:53.08 146687  339 CHUMBA WUM
2LUKE STROBEL   Mission Viejo, CA04:58.04 191052  335 DOWNHILL Z
3Steven Wentz   Boulder, CO05:00.76 148884  337 TEAM TURNE
4Cameron Zink   Sparks, NV05:03.82 112265  312 OAKLEY/SUP
5Jamas Stiber   Vail, CO05:04.35 14  374 LENZ SPORT
6JOSHUA CLARK   05:06.18  323 
7JOE METZ   05:06.70  354 TEAM SWIFT
8James Ivin   Issaquah, WA05:06.74 181029  331 DOWNHILL Z
9Kyle Bielenberg   Mesa, AZ05:10.62 76465  326 EVIL BIKES
10Willy Warren   Glenwood Springs, CO05:11.82 37300  348 KONA BICYC
11Matthew Fisher   Boulder, CO05:11.89 113183  336 RPM/YETI
12Damion Smith   Golden, CO05:13.22 161752  367 RPM/YETI
13TODD OLSEN   05:14.36  338 TREAILER P
14Billy Owczarski   San Luis Obispo, CA05:16.89 165178  342 FINAL CAUS
15Ian Odom   Big Bear City, CA05:17.78 153418  369 TEAM BIG B
16SANJAY SHANBHAG   05:18.10  343 NICOLAI
17Doug Ewer   Denver, CO05:18.49 182791  362 TEAM BIG C
18Curtis Beavers   San Jose, CA05:19.67 162922  321 FINAL CAUS
19Trevor Ellingham   Henderson, NV05:20.04 109354  370 HIGH ROLLE
20Quinton Spaulding   Henderson, NV05:21.00 165835  301 KHS
21Kirk Desmond   Novato, CA05:21.09 142104  324 
22Benedict Treglia   York, PA05:21.75 111141  313 RACERS EDG
23Moses Mexia   Boise, ID05:22.75 99715  303 STURTOS
24Daniel Baggs   San Luis Obispo, CA05:23.08 151489  344 TRUVATIV
25Tige Eakin   Chico, CA05:23.35 172001  310 OLD TOWN B
26Kim Eakin   University Place, WA05:23.60 113296  308 OLDTOWN BI
27JP LUTTERLOH   05:23.87  233 BIKE LOFT
28Lance Canfield   Jackson, WY05:25.04 121750  325 CANFIELD B
29Zeke Corson   Olympic Valley, CA05:25.94 164461  330 KARPIEL
30Chris Heath   Denver, CO05:26.43 177708  304 CHUMBA WUM
31Leif Lorenzen   Croton On Hudson, NY05:26.68 168141  345 IRON HORSE
32Justin May   Issaquah, WA05:27.31 173816  322 DOWNHILL Z
33BERT BOYCE   05:28.67  355 
34Kevin Fowler   Dana Point, CA05:29.74 151154  353 TURNER HON
35Kirk Adcock   Breckenridge, CO05:30.15 119205  349 GREAT ADVE
36Cody Warren   Alpine, CA05:30.58 160802  332 HARO-LEE D
37Avery Buch   Freeport, ME05:31.58 161748  309 EVIL BIKES
38Deke Williams   Thousand Oaks, CA05:34.16 38332  318 
39LARS STERNBER   05:34.96  346 GOHUCKYOUR
40Doug Gormley   Salt Lake City, UT05:35.46 13738  306 
41Silas Hesterberg   Hailey, ID05:35.69 150751  373 CAFFERTYS
42Joshua Misevcis   Catskill, NY05:37.04 140892  341 WNDHAM MT
43Heikki Hall   Durango, CO05:37.57 117452  305 EVILBIKES/
44Jason Mosley   Port Angeles, WA05:38.36 181225  371 CW RACING/
45Corey Lewis   Henderson, NV05:38.73 128051  358 HIGH ROLLE
46Kristopher Baughman   Salt Lake City, UT05:38.88 2921  360 GO RIDE.CO
47Paul Smith   Hunt Valley, MD05:39.05 131272  368 TREK
48Marc Ciufolo   St. Louis, MO05:39.11 6954  350 FAST TIMES
49Bryan Culp   Dublin, CA05:39.28 90704  356 WTB/MARIN
50Jonathan Canfield   Laguna Beach, CA05:39.56 142925  311 TURNER/HON
51Cory Gustafson   Vista, CA05:39.63 162777  316 FOES-AZONI
52JIM KARN   05:43.99  357 
53Ryan Wilson   Enumclaw, WA05:44.02 174953  327 
54Peter Shaffer   Salt Lake City, UT05:44.90 151506  359 GO RIDE
55Matt Vujicevich   San Mateo, CA05:46.03 189478  333 SC VELO
56Brandon Somers   Clarkston, WA05:48.21 179504  315 AZONIC
57Thomas Tokarczyk   Durango, CO05:49.65 105533  329 JAMIS/MAXX
58Richard VanEvery   Carlsbad, CA05:51.51 36434  364 SANTA CRUZ
59Brian Gerrard   Lake Tapps, WA05:56.53 149251  307 FOX SHOX/H
60KEITH THOMPSON   05:56.53  363 
61Bart Bachura   Heber City, UT06:00.06 80492  334 DOD
62Alex Boday   Fort Collins, CO06:03.96 163689  340 TOMAC AZON
63KEVIN RYAN   06:05.68  366 DOWNHILL Z
64Jason Strother   Redmond, WA06:14.73 109596  328 RAPID DESC
65Mike Tartaglia   Loveland, CO06:27.69 104092  365 TOMAC/SA R
66Tony Santoro   Las Vegas, NV06:32.69 155222  320 HIGHROLLER
DNFJacy Shumilak   Lake Elsinore, CADNF 175247  314 IRON HORSE
DNFRobert Dixon   Spokane, WADNF 152417  319 NORTHWEST
DNFChristopher Canfield   Bellingham, WADNF 172199  372 CANFIELD B
DNFRUSS WARRICK   DNF  361 DHZ/WARRIC
DNFRichard Mukai   Issaquah, WADNF 150044  352 ATOM LAB/

Men - EX - Senior - 19-24

 Place NameCity, StateTime USAC #BibTeam
1Eli Krahenbuhl   Cheyenne, WY0:05:10. 193479  836 ARROW/ MAR
2CARLIN DUNNE   0:05:19.  1048 OGB
3Michael Howse   Boulder, CO0:05:26. 179509  893 EXCEL SPOR
4CARL MARCUM   0:05:27.  906 JOYRIDE
5Brian Durling   West Sacramento, CA0:05:30. 177722  829 MIKES BIKE
6REED DOERR   0:05:35.  840 
8Neal Strobel   Renton, WA0:05:44. 185277  988 DOWNHILL Z
9Christopher Achorn   Gilmanton, NH0:05:45. 162540  844 PREMIER
10Landon Taylor   Big Bear Lake, CA0:05:45. 172596  1033 TEAM BIG B
11Eric Frost   Pocatello, ID0:05:50. 148044  594 INSTANT RE
12Ryan McLellan   Spokane, WA0:05:51. 152901  807 NORTHWEST
13Bryan Hyatt   Oklahoma City, OK0:05:55. 176209  885 SUN RINGLE
14Greg Vogt   Boulder, CO0:05:56. 161706  824 TLD/ THE F
15Paul Phillips   Whitesboro, NY0:05:57. 135320  958 
16Peter Stuart   Vashon, WA0:06:02. 181224  700 SPEED META
17COREY LEMESSENER   0:06:05.  1031 MOUNTAIN C
18Nate Riffle   Ventura, CA0:06:06. 164883  948 FINISH LIN
19Mark Milliken   Grand Junction, CO0:06:11. 141733  772 TINY COG R
20Juan Graziosi   San Jose, CA0:06:14. 144396  711 FINAL CAUS
21John Reynolds   Denver, CO0:06:16. 129737  908 RPM/YETI
22TOM OCONNOR   Centreville, VA0:06:20. 148558  1067 BEYOND BIK
23Chris Carleton   Portland, ME0:06:24. 149927  454 EVIL BIKES
24Chris Andreasen   Spokane, WA0:06:24. 198709  573 NORTHWEST
25SAM HENSOLD   0:06:24.  553 
26DREW SWAYNE   0:06:25.  928 WWU TEAM V
27Andrew Morin   Santa Barbara, CA0:06:26. 213161  1047 OGB RACING
28Boe McGee   Bellevue, WA0:06:27. 193517  560 GO-RIDE/AZ
29SUNNY WILLIS   0:06:29.  826 
30Jesse Kieffer   Puyallup, WA0:06:30. 100850  751 TEAM PSYCH
31NATHAN WATERSTREET   0:06:31.  837 
32Nick Newman   Draper, UT0:06:55. 153793  971 
33TIM DILLARD-CRICHLOW   0:07:05.  943 BEEF
34Nic Hood   Spokane, WA0:07:16. 198985  862 ACTIVE ADV
35Chris Janes   Black Diamond, WA0:07:31. 161105  792 UNIVERSITY
36Shane Myr   Hayden, ID0:07:40. 176052  1112 MT VIEW CY
37Otis Elmquist   Kellogg, ID0:08:32. 198689  611 
38Bryan Crum   Spokane, WA0:08:59. 114586  1051 ACTIVE ADV
DNFGeorge Simoncini   Redwood City, CADNF 190178  827 
DNFRobbie Johnson   Spokane, WADNF 113749  593 
DNFBRIAN WELSHIMER   DNF  913 LOST RIVER
DNFSHAWN BONDE   DNF  1100 

Men - EX - Senior - 25-29

 Place NameCity, StateTime USAC #BibTeam
1JED COLVIN   0:05:22.  957 WILSON BAC
2Dan Krenicki   Truckee, CA0:05:33. 180204  696 
3Chris Just   Newbury Park, CA0:05:34. 159463  558 
4ZEB TINGEY   0:05:36.  1129 VERTICAL E
5Mark Christensen   Salt Lake City, UT0:05:37. 163141  959 GUTHRIE BI
6Clay Morrison   Missoula, MT0:05:44. 189982  793 
7Isaac Pantone   Huntsville, UT0:05:44. 160247  895 THE BIKE S
8Philip Vega   Boise, ID0:05:46. 163449  912 JOYRIDE
9DANTE HARMONY   0:05:53.  442 
10Todd Koskinen   Durango, CO0:05:54. 91856  891 
11ERICK ERICKSON   0:06:04.  763 
12Dave Mitchel   Marysville, WA0:06:04. 198698  595 TIMS BIKE
13Joel Spackman   Bellingham, WA0:06:06. 120817  651 WWU TEAM V
14Anthony Cordeiro   Mattapoisett, MA0:06:19. 146198  970 GORGOUS DO
15SAM ISETT   0:06:20.  921 
16Andrew Lane   Flagstaff, AZ0:06:22. 180234  1040 ADVENTURES
17Jake Horsley   Bend, OR0:06:24. 212615  1063 DARK HORSE
18A Johnson   Renton, WA0:06:36. 181035  935 GOHUCKYOUR
19RAY PROVENCIO   0:06:39.  964 NICOLAI
20William Trice   Seattle, WA0:06:40. 163540  1104 AZONIC/MRP
21Ian Gordon   Seattle, WA0:06:43. 80275  898 DOWNHILL Z
22Matt Caldwell   Renton, WA0:06:53. 181832  937 SPEEDMETAL
23Jeremy Wilson   Enumclaw, WA0:07:09. 151203  732 
24ALEX LOVE   0:07:18.  1062 DARKHORSE
25Mark Bender   Duvall, WA0:07:44. 93725  620 BICYCLE CE
26Thor Jones   Winlock, WA0:09:16. 176345  745 BERSERKER
27Jason Durling   Redwood City, CA0:09:38. 189949  825 
28Evelio Suarez   Costa Mesa, CA0:12:46. 162000  955 
DNFChris McIntosh   Willoughby, OHDNF 23567  881 LEVERICHCY
DNFCHRIS MURRAY   DNF  662 SATAN RACI
DNFCRIAG GARBIEL   DNF  871 
DNFLee Cooper   Jackson, WYDNF 194732  693 TINY COG R
DNFLuc Albert   Milpitas, CADNF 166660  551 PLANET X
DNFAndy Hilliard   S Lake Tahoe, CADNF 147919  640 TEAM JACKA

Men - EX - Master - 30-34

 Place NameCity, StateTime USAC #BibTeam
1Christiaan Bourdrez   Enumclaw, WA0:05:41. 184070  884 REDHOOK BE
3Dale Bonn   Ventura, CA0:05:46. 146566  960 
4Larry Greene   Scottsdale, AZ0:05:56. 112067  956 LANDIS VAL
5John Evans   North Bend, WA0:05:58. 147239  619 CYCLE PATH
6Aaron Potter   Phoenix, AZ0:05:58. 127217  566 AZONIC/KEN
7Todd Byle   Hailey, ID0:05:58. 139507  457 STURTOS
8AARON WALKER   0:06:04.  404 
9Erron McCurdy   Santa Cruz, CA0:06:05. 178687  650 
10CLARK HUDSON   0:06:09.  1032 LENZ SPORT
11Justin Alvey   Layton, UT0:06:13. 81806  485 GORIDE.COM
12Matt Palmisano   Colorado Springs, CO0:06:13. 168881  880 
13William (Bill) Hane   Reno, NV0:06:16. 158355  864 NORTHERN L
14Josh Boyd   Troy, MT0:06:19. 191553  907 
16Bryan Camp   Buena Vista, CO0:06:26. 192445  878 YETI RPM
17Tim Gregory   Moscow, ID0:06:35. 169965  916 AZONIC/MAR
18Masahiko Shibata   Aurora, CO0:06:37. 185358  872 
19Rodney James   Lennox, CA0:06:49. 168437  902 TEAM ECLIP
20Jeffrey Bechtel   Elkton, VA0:06:57. 148756  563 DOWNHILL Z
21Emmanuel Pons   Salt Lake City, UT0:06:58. 181297  810 
22JASON WITT   0:07:07.  923 
23Douglas Clark   Westchester, CA0:07:15. 150064  846 KHS BICYCL
24Curtis Warren   Madison Hts, MI0:07:25. 179992  930 LANDSLIDE
25Greg Austin   San Marcos, CA0:07:27. 155987  462 MADCATZ/OR
26Aaron Gilliland   Loveland, CO0:07:33. 100256  876 SA RACING
DNFERIC NESS   DNS  1131 

Men - EX - Master - 35-39

 Place NameCity, StateTime USAC #BibTeam
1Darin Delio   Lahaina, HI0:05:31. 189885  946 NO BRAKES
2Mike Wadholm   Renton, WA0:05:49. 173734  490 MUKAI
3Damon Kirchmeier   Farmington, UT0:05:50. 19248  466 GO-RIDE.CO
4Chuck Valenzuela   Littlerock, CA0:05:55. 156982  852 KHS
5Kriss Walton   Rhododendron, OR0:05:56. 37146  944 CASCADE DH
6BRAD WATT   0:06:02.  819 
7Peter Costain   Whitefish, MT0:06:06. 7868  1137 DIRTY PETE
8JASON HUDSON   0:06:18.  952 
9Matthew Sierer   Kirkland, WA0:06:38. 181404  500 RAPID DESC
10Jeffery Audet   Camano Island, WA0:06:40. 144058  892 CTS EXCAVA
11Jason Bredbury   Boston, MA0:06:43. 178128  909 PLANET X
12Joel Leyva   Los Gatos, CA0:07:01. 168323  477 PRIVATEER
13TODD OLSON   Philadelphia, PA0:07:05. 136220  999 FAT TIRE F
14ROBBY MEISER   0:08:05.  535 
15Anthony Howard   Portland, OR0:10:47. 132560  439 
DNFRyan Sorenson   Grapeview, WADNF 86897  408 
DNFJoe Peterson   Renton, WADNF 27906  729 DIRTWORLD

Men - EX - Master - 40-44

 Place NameCity, StateTime USAC #BibTeam
1William Kieffer   Puyallup, WA0:06:03. 19075  766 TEAM PSYCH
2John Swanguen   San Diego, CA0:06:16. 34733  726 COLLEGE CY
3John Shevenell   Danville, CA0:06:25. 80987  899 WTB SUNRAC
4Jim Ghahremani   Mission Viejo, CA0:06:38. 43874  879 ODI/SOUTHR
5Don Jackson   Riverside, CA0:06:43. 17510  545 ODI/SOUTHR
6Loren Morris   Snoqualmie, WA0:07:08. 43163  432 
7William Devlin   Sammamish, WA0:07:44. 152899  517 TITUS
8Jeffrey Haymes   Lacey, WA0:08:11. 116719  887 TEAM MUNKI
9STEVE PARRISH   0:08:13.  1028 SIRT DART
DNFRocky Crocker   Wenatchee, WADNF 180676  455 WENATCHEE
DNFMartin Milsted   Seattle, WADNF 168633  760 
DNFKEELY EARLE   DNF  665 DIRTWORLD/

Men - EX - Master - 45-49

 Place NameCity, StateTime USAC #BibTeam
1Mark Umland   San Bernardino, CA0:06:42. 153031  775 ODI SOUTHR
2Karl Eberhardt   San Diego, CA0:07:03. 94812  767 REDBULL HA
3Mike Edward   Ben Lomond, CA0:07:27. 150386  822 ARROW RACI
4Doug Minor   Nine Mile Falls, WA0:07:48. 191557  559 

Men - EX - Master - 50-54

 Place NameCity, StateTime USAC #BibTeam
1Scott Smith   Porterville, CA0:06:25. 33283  820 ODI /SOUTH
2ARNOLD MUKAI   0:07:25.  818 TEAM MUKAI
3Mike Edward   Ben Lomond, CA0:07:42. 150386  821 ARROW RACI
4Robert Britschgi   Seattle, WA0:10:15. 4885  458 BARE BONES

Men - EX - Master - 60-64

 Place NameCity, StateTime USAC #BibTeam
1Michael Vincent   Coeur D Alene, ID0:12:13. 135212  405 VERTICAL E

Men - EX - Master - 65-99

 Place NameCity, StateTime USAC #BibTeam
DNFWilliam Linney   Cheney, WADNF 94070  682 MIDWAY CYC

Men - SP - Senior - 19-24

 Place NameCity, StateTime USAC #BibTeam
1Shawn Stevenson   Castro Valley, CA0:06:19. 172618  949 CVC/WTB
2TYLER MCCLENDON   0:06:26.  746 
3KELLY STEPP   0:06:44.  1002 
4STEPHEN BRZEZINSKI   E Kingston, NH0:06:48. 200826  983 GRAVITY WA
5Matt Plude   Bellingham, WA0:06:52. 167413  811 WWU-TEAM V
6KAI HARWICK   0:07:12.  867 RAPID DESC
7WES HENRY   0:07:14.  537 
8JESSY HUMMEL   0:07:23.  998 BERSERKER
9JAVAN RUARK   0:07:39.  701 
DNFAdam Schaeffer   Seattle, WADNF 200268  1019 WARRICK RA
DNFLewis Hollingworth   Montara, CADNF 157181  905 PLANET X

Men - SP - Senior - 25-29

 Place NameCity, StateTime USAC #BibTeam
1Joshua Kemp   Vancouver, WA0:06:35. 214399  1023 GRAVITY FX
2Timothy Owen   Castro Valley, CA0:06:43. 79234  951 WTB/CVC
3Gordon Leckie   Vancouver, WA0:06:47. 214400  1022 RISSE
4CORY BIBBY   0:07:00.  926 SPEED META
5BRANT NESS   0:07:13.  1003 FRED MEYER
6Brian Stone   Redmond, WA0:08:02. 169202  762 
7JASON BERGER   0:09:05.  1090 
8Kevin Dahlen   Shoreline, WA0:09:13. 175905  603 
9William Dahlen   Spokane, WA0:10:11. 191552  452 ROLLING SU

Men - SP - Master - 30-34

 Place NameCity, StateTime USAC #BibTeam
1RICK ESTERLY   0:06:45.  1016 
2PATRICK WALSH   0:06:47.  1089 TEAM KILLI
3Doug Park   Coeur D Alene, ID0:06:51. 198975  618 ROLLING SU
4Mike Garcia   Kirkland, WA0:07:25. 198977  931 
5EVE JONES   0:07:34.  915 THORS BERS
6Brad Scott   E Wenatchee, WA0:07:39. 169204  416 RAPID DESC
7Doug Frei   Inkom, ID0:07:44. 187494  451 
8Curtis Dunbar   Redmond, WA0:08:52. 173737  954 RAPID DESC
9TREVOR ADLEN   0:08:58.  1074 
10CHRIS MCCOLLUM   0:12:45.  1105 LONG CHIRO
11RICH DENSMORE   0:16:30.  1046 WEST COAST
DNFTrue Tourtillott   San Jose, CADNF 189900  1043 TRAILHEAD
DNFCory Hollis   Tacoma, WADNF 186681  710 

Men - SP - Master - 35-39

 Place NameCity, StateTime USAC #BibTeam
1David Jensen   Queen Creek, AZ0:06:46. 184072  900 NO BRAKES
2Duane White   Maple Valley, WA0:07:02. 180063  602 RAPID DESC
3Todd Rutledge   Phoenix, AZ0:07:04. 165659  504 
4Jon Martin   Arcata, CA0:07:11. 169689  486 REVOULTION
5David Decker   Newark, CA0:07:24. 131607  554 
6Mike Macaulay   Whitmore Lake, MI0:08:00. 199940  934 LANDSLIDE
7Loreto Julian   Seattle, WA0:09:14. 188181  747 TEAM MUKAI
8Sean Pryce   Beaverton, OR0:10:48. 170436  1005 PRYCE RACI
DNFMark James   Castro Valley, CADNF 128342  925 MCGRAFF

Men - SP - Master - 40-49

 Place NameCity, StateTime USAC #BibTeam
1Richard Hathaway   Jupiter, FL0:06:47. 139042  569 RENO HILTO
2JAMES VENGEL   0:06:53.  985 TEAM MARGA
3SETH DAWSON   Woodstock, VA0:06:58. 89280  903 NO BRAKES
4Ron Kagel   Vista, CA0:07:13. 176166  576 
5Tom Warren   North Bend, WA0:07:19. 179691  991 SINGLETRAC
6Christopher Achorn   Gilmanton, NH0:07:48. 174024  843 PREMIER PU
7Dave Reed   Seattle, WA0:08:10. 163525  513 DIRTWORLD.

Men - SP - Master - 50-99

 Place NameCity, StateTime USAC #BibTeam
1Terry Dickey   Spokane, WA0:11:10. 9444  552 
2GREG JANES   0:15:39.  781 
DNFMIKE GREGG   DNF  861 ALPINE DES

Men - BG - Senior - 19-24

 Place NameCity, StateTime USAC #BibTeam
1ANDREW LEESE   0:07:11.  656 TEAM VIKIN
2MATT HALL   0:07:13.  941 
3JOHN COURTNEY   0:08:50.  1057 G-FORCE BI
4PAUL RIESS   0:09:28.  1058 

Men - BG - Senior - 25-29

 Place NameCity, StateTime USAC #BibTeam
DNFTROY MARKS   DNF  798 

Men - BG - Master - 35-39

 Place NameCity, StateTime USAC #BibTeam
1Karl Browne   Black Diamond, WA0:07:05. 190829  518 SINGLETRAC

Men - BG - Master - 40-49

 Place NameCity, StateTime USAC #BibTeam
1Brian Crandall   Shoreline, WA0:08:19. 200419  1061 
2John Casey   Berkeley, CA0:09:40. 135147  790 AZONIC
3Christopher Holmes   Folsom, CA0:11:22. 16595  917 ROCKNASIUM
4Vince Beserra   Tustin, CA0:14:38. 194151  483 
DNFRANDY EARLE   DNF  625 

Men - BG - Master - 50-99

 Place NameCity, StateTime USAC #BibTeam
1ALLAN BEATTIE JR   Snoqualmie, WA0:07:42. 190830  549 SINGLE TRA

Women - Junior - JR - 13-14

 Place NameCity, StateTime USAC #BibTeam
1Essence Barton   Thousand Oak, CA0:11:48. 179924  974 GIANT
2Lauren Gardner   Redmond, WA1:16:18. 190842  786 SINGLE TRA

Women - Junior - JR - 17-18

 Place NameCity, StateTime USAC #BibTeam
1MELISSA WARREN   Scottsdale, AZ0:17:18. 181602  990 SINGLETRAC
2AMY STAUGH   Redmond, WA0:18:22. 198626  597 

Women - Junior - JR - JuniorX

 Place NameCity, StateTime USAC #BibTeam
1Jenessa Cornelison   Folsom, CA0:07:08. 189641  918 KARPIEL/WT
2Katie Holden   Scotts Valley, CA0:07:42. 198434  914 SPEED META
DNFLeana Gerrard   Lake Tapps, WADNF 149252  448 SOBE/CANNO

Women - Pro - Senior

 Place NameCity, StateTime USAC #BibTeam
1Kathleen (Kathy) Pruitt   Saratoga, CA05:23.58 117831  LUNA
2SABRINA JONNIER   05:26.85  INTENSE
3TRACY MOSELEY   05:32.71  KONA CLARK
4MIO SUEMASA   05:33.14  31 TREK-VOLKS
5FIONN GRIFFITHS   05:38.47  24 FOES/AZ
6Melissa Buhl   Chandler, AZ05:43.48 75536  KHS
7Marla Streb   Baltimore, MD05:47.14 34393  LUNA WOMEN
8April Lawyer   Bend, OR06:01.95 99639  MAXXIS TIR
9TAI-LEE MUXLOW   Traverse City, MI06:08.82 102728  25 TIOGA ORAN
10Dawn Bourque   Campton, NH06:22.03 4403  10 DRIED PLUM
11GALE DAHLAGER   Kaneohe, HI06:25.96 17480  12 ASTRIX POI
12Lisa Myklak   Felton, CA06:26.31 182668  39 ASTRIX SPO
13Kristina Martinez   San Rafael, CA06:33.00 180127  32 RPM-YETI
14Anka Martin   Laguna Beach, CA06:35.54 172194  13 TURNER/HON
15Leigh Fiedler   Seattle, WA06:44.91 168640  33 RAPID DESC
16Holly Kuhn   Inglewood, CA06:57.75 121480  23 ZOO YORK/V
17Laura Johnson   Portland, OR07:01.45 173612  40 BICYCLES B
18ALLIE RAU   07:04.88  42 
19Kristin Powers   Phoenix, AZ07:05.72 138601  43 NO BRAKES
20Emily Johnston   Broomfield, CO07:19.89 173609  38 VELOCITY S
21Carrie Cleeton   Corvallis, OR07:33.04 150644  37 FOES/AZONI
22LAURE POCHMARA   08:11.84  35 RAPID DESC
23Jessica Vogt   Boulder, CO10:09.43 161705  34 TEAM RPM/Y

Women - EX - Senior - 19-24

 Place NameCity, StateTime USAC #BibTeam
1Joanna Petterson   Jericho, VT0:07:18. 187041  940 RPM AZONIC
2Carmen Marin   Glendale, CA0:09:22. 150311  525 AZONIC/ONE

Women - EX - Senior - 25-29

 Place NameCity, StateTime USAC #BibTeam
1Amelia Colasurdo   Seattle, WA0:07:02. 169690  663 THE DOWNHI
2Jacqueline Harmony   Tucson, AZ0:07:02. 191051  443 
3Jennifer Jones   Kelso, WA0:08:20. 180432  755 BERSERKER
4Adrienne Schneider   Incline Village, NV0:08:22. 176416  467 
5MICHELLE DOMBROWSKI   0:13:09.  1034 ROCK SHOP
6H Nielle Hill   Grahamsville, NY0:14:56. 156065  744 RAPID DECE

Women - EX - Master - 30-34

 Place NameCity, StateTime USAC #BibTeam
1Julie Larsen   Silverthorne, CO0:08:29. 139238  868 WIGWAM/ UL
2Lisa Reinhard   Phoenix, AZ0:09:29. 157921  612 TEAM OXYGE

Women - EX - Master - 35-39

 Place NameCity, StateTime USAC #BibTeam
1Denise Wardwell   Boise, ID0:09:24. 169460  1036 JOYRIDE

Women - EX - Master - 40-44

 Place NameCity, StateTime USAC #BibTeam
1Theresa Seeberg   Salt Lake City, UT0:07:52. 183006  883 BROOKLYN M

Women - EX - Master - 50-54

 Place NameCity, StateTime USAC #BibTeam
DNFMary Purvis   Litchfield Park, AZDNF 173415  421 

Women - SP - Senior - 19-29

 Place NameCity, StateTime USAC #BibTeam
1JAMIE LITTLE   0:08:04.  1021 FOES/OAKLE
2BREE MITCHEL   0:08:40.  624 TIMS BIKE
3HILLARY HARRISON   0:09:27.  1076 REDHOOK BE

Women - SP - Master - 30-39

 Place NameCity, StateTime USAC #BibTeam
1SARA JOHNSON   0:10:33.  721 
2ANGELA MARTENS   0:13:01.  697 DOWNHILL S

Women - BG - Senior - 19-29

 Place NameCity, StateTime USAC #BibTeam
1Brooke Shore   Bellevue, WA0:11:44. 199612  604 
DNFKAYLA SEDLACEK   DNF  672 

Report missing or incorrect license numbers

Volkswagen
Bonk BreakerUSACDFSpySierra NevadaShimano
UCI USA Cycling is the official governing body for all disciplines of competitive cycling in the United States. The 501c3, membership-based organization aims both to achieve sustained success in international cycling competition and to grow competitive cycling in America while delivering an exceptional customer experience.
View Children's Online Privacy Protection Policy
US Olympic Committee